,,,PA_Meas_PMT16A,,PR_Meas_QMR101_102,,RH_Meas_QMH101,,SR_Meas_QMS101,,TA_Meas_QMH101,,GenWind,,GenWind,
date,time,status,PA,status,PR,status,RH,status,SR,status,TA,status,DirAvg,status,SpdAvg,
2011-09-03, 00:00:05,VALID,1000.98,VALID,0,VALID,82.3007,VALID,0,VALID,25.2821,VALID,166,VALID,1.62617,
2011-09-03, 00:01:05,VALID,1000.97,VALID,0,VALID,82.3083,VALID,0.112286,VALID,25.2607,VALID,163,VALID,1.69727,
2011-09-03, 00:02:05,VALID,1000.97,VALID,0,VALID,82.1786,VALID,0,VALID,25.2607,VALID,169,VALID,1.29844,
2011-09-03, 00:03:05,VALID,1000.95,VALID,0,VALID,82.1252,VALID,0,VALID,25.2607,VALID,155,VALID,1.66133,
2011-09-03, 00:04:05,VALID,1000.93,VALID,0,VALID,82.2244,VALID,0.112286,VALID,25.2412,VALID,143,VALID,1.53281,
2011-09-03, 00:05:05,VALID,1000.94,VALID,0,VALID,82.316,VALID,0,VALID,25.2217,VALID,152,VALID,2.07227,
2011-09-03, 00:06:05,VALID,1000.93,VALID,0,VALID,82.3465,VALID,0,VALID,25.2431,VALID,152,VALID,1.4168,
2011-09-03, 00:07:05,VALID,1000.88,VALID,0,VALID,82.2855,VALID,0,VALID,25.2021,VALID,165,VALID,1.54453,
2011-09-03, 00:08:05,VALID,1000.88,VALID,0,VALID,82.3923,VALID,0,VALID,25.1826,VALID,153,VALID,1.86484,
2011-09-03, 00:09:05,VALID,1000.89,VALID,0,VALID,82.316,VALID,0,VALID,25.1826,VALID,144,VALID,1.93555,
2011-09-03, 00:10:05,VALID,1000.85,VALID,0,VALID,82.0871,VALID,0,VALID,25.1826,VALID,150,VALID,2.25586,
2011-09-03, 00:11:05,VALID,1000.84,VALID,0,VALID,81.8887,VALID,0,VALID,25.2021,VALID,150,VALID,2.19531,
2011-09-03, 00:12:05,VALID,1000.87,VALID,0,VALID,82.026,VALID,0,VALID,25.2236,VALID,147,VALID,1.74609,
2011-09-03, 00:13:05,VALID,1000.84,VALID,0,VALID,81.8124,VALID,0,VALID,25.2021,VALID,141,VALID,2.52773,
2011-09-03, 00:14:05,VALID,1000.85,VALID,0,VALID,81.8582,VALID,0,VALID,25.2217,VALID,150,VALID,2.30898,
2011-09-03, 00:15:05,VALID,1000.85,VALID,0,VALID,81.8277,VALID,0.112286,VALID,25.2021,VALID,148,VALID,2.30703,
2011-09-03, 00:16:05,VALID,1000.86,VALID,0,VALID,81.8658,VALID,0,VALID,25.2021,VALID,141,VALID,1.83359,
2011-09-03, 00:17:05,VALID,1000.83,VALID,0,VALID,81.7895,VALID,0,VALID,25.2236,VALID,132,VALID,1.92227,
2011-09-03, 00:18:05,VALID,1000.85,VALID,0,VALID,81.6293,VALID,0,VALID,25.2217,VALID,133,VALID,2.57422,
2011-09-03, 00:19:05,VALID,1000.81,VALID,0,VALID,81.6598,VALID,0,VALID,25.2217,VALID,142,VALID,2.12695,
2011-09-03, 00:20:05,VALID,1000.79,VALID,0,VALID,81.614,VALID,0,VALID,25.2217,VALID,134,VALID,1.96992,
2011-09-03, 00:21:05,VALID,1000.79,VALID,0,VALID,81.698,VALID,0,VALID,25.2236,VALID,136,VALID,1.97656,
2011-09-03, 00:22:05,VALID,1000.77,VALID,0,VALID,81.8658,VALID,0,VALID,25.1826,VALID,145,VALID,1.8875,
2011-09-03, 00:23:05,VALID,1000.75,VALID,0,VALID,81.6217,VALID,0,VALID,25.204,VALID,148,VALID,2.84961,
2011-09-03, 00:24:05,VALID,1000.74,VALID,0,VALID,81.7972,VALID,0,VALID,25.2217,VALID,141,VALID,1.58398,
2011-09-03, 00:25:05,VALID,1000.72,VALID,0,VALID,81.7132,VALID,0,VALID,25.2021,VALID,152,VALID,1.89219,
2011-09-03, 00:26:05,VALID,1000.71,VALID,0,VALID,81.6827,VALID,0,VALID,25.1826,VALID,148,VALID,2.33086,
2011-09-03, 00:27:05,VALID,1000.7,VALID,0,VALID,81.6446,VALID,0,VALID,25.2236,VALID,149,VALID,2.16211,
2011-09-03, 00:28:05,VALID,1000.68,VALID,0,VALID,81.5301,VALID,0.112286,VALID,25.2217,VALID,155,VALID,2.31133,
2011-09-03, 00:29:05,VALID,1000.65,VALID,0,VALID,81.4004,VALID,0,VALID,25.2217,VALID,145,VALID,2.04883,
2011-09-03, 00:30:05,VALID,1000.65,VALID,0,VALID,81.5301,VALID,0,VALID,25.2431,VALID,151,VALID,1.86641,
2011-09-03, 00:31:05,VALID,1000.64,VALID,0,VALID,81.4386,VALID,0,VALID,25.2431,VALID,148,VALID,2.08008,
2011-09-03, 00:32:05,VALID,1000.6,VALID,0,VALID,81.4691,VALID,0,VALID,25.2236,VALID,157,VALID,1.90078,
2011-09-03, 00:33:05,VALID,1000.57,VALID,0,VALID,81.6064,VALID,0,VALID,25.2021,VALID,148,VALID,1.64414,
2011-09-03, 00:34:05,VALID,1000.57,VALID,0,VALID,81.6293,VALID,0,VALID,25.1826,VALID,158,VALID,1.83594,
2011-09-03, 00:35:05,VALID,1000.54,VALID,0,VALID,81.7514,VALID,0,VALID,25.1631,VALID,158,VALID,1.72578,
2011-09-03, 00:36:05,VALID,1000.51,VALID,0,VALID,81.6217,VALID,0,VALID,25.1436,VALID,158,VALID,1.94336,
2011-09-03, 00:37:05,VALID,1000.49,VALID,0,VALID,81.614,VALID,0,VALID,25.1826,VALID,146,VALID,1.81445,
2011-09-03, 00:38:05,VALID,1000.48,VALID,0,VALID,81.6369,VALID,0,VALID,25.1631,VALID,152,VALID,1.81836,
2011-09-03, 00:39:05,VALID,1000.44,VALID,0,VALID,81.6827,VALID,0,VALID,25.1631,VALID,147,VALID,1.48203,
2011-09-03, 00:40:05,VALID,1000.44,VALID,0,VALID,81.6751,VALID,0,VALID,25.1436,VALID,155,VALID,1.41094,
2011-09-03, 00:41:05,VALID,1000.41,VALID,0,VALID,81.6827,VALID,0,VALID,25.1455,VALID,163,VALID,1.48867,
2011-09-03, 00:42:05,VALID,1000.4,VALID,0,VALID,81.7819,VALID,0,VALID,25.1241,VALID,155,VALID,1.27773,
2011-09-03, 00:43:05,VALID,1000.42,VALID,0,VALID,81.7895,VALID,0,VALID,25.126,VALID,170,VALID,1.57187,
2011-09-03, 00:44:05,VALID,1000.4,VALID,0,VALID,81.6827,VALID,0,VALID,25.1045,VALID,163,VALID,1.74609,
2011-09-03, 00:45:05,VALID,1000.39,VALID,0,VALID,81.7285,VALID,0,VALID,25.1241,VALID,172,VALID,1.90898,
2011-09-03, 00:46:05,VALID,1000.39,VALID,0,VALID,81.5301,VALID,0,VALID,25.1436,VALID,173,VALID,2.07578,
2011-09-03, 00:47:05,VALID,1000.4,VALID,0,VALID,81.3241,VALID,0,VALID,25.1631,VALID,169,VALID,2.11211,
2011-09-03, 00:48:05,VALID,1000.4,VALID,0,VALID,81.1334,VALID,0,VALID,25.204,VALID,181,VALID,2.02148,
2011-09-03, 00:49:05,VALID,1000.38,VALID,0,VALID,80.7443,VALID,0,VALID,25.2217,VALID,177,VALID,2.3293,
2011-09-03, 00:50:05,VALID,1000.35,VALID,0,VALID,80.4315,VALID,0,VALID,25.2412,VALID,176,VALID,2.38633,
2011-09-03, 00:51:05,VALID,1000.34,VALID,0,VALID,80.1873,VALID,0,VALID,25.2821,VALID,180,VALID,2.28125,
2011-09-03, 00:52:05,VALID,1000.31,VALID,0,VALID,80.0729,VALID,0,VALID,25.2821,VALID,182,VALID,2.48555,
2011-09-03, 00:53:05,VALID,1000.32,VALID,0,VALID,79.7524,VALID,0,VALID,25.2802,VALID,181,VALID,2.69297,
2011-09-03, 00:54:05,VALID,1000.33,VALID,0,VALID,79.7982,VALID,0,VALID,25.3017,VALID,174,VALID,2.11836,
2011-09-03, 00:55:05,VALID,1000.32,VALID,0,VALID,79.6303,VALID,0,VALID,25.2802,VALID,174,VALID,2.67656,
2011-09-03, 00:56:05,VALID,1000.32,VALID,0,VALID,79.8287,VALID,0,VALID,25.3017,VALID,173,VALID,2.19219,
2011-09-03, 00:57:04,VALID,1000.29,VALID,0,VALID,79.8592,VALID,0,VALID,25.2412,VALID,170,VALID,2.12969,
2011-09-03, 00:58:04,VALID,1000.28,VALID,0,VALID,79.7143,VALID,0,VALID,25.2412,VALID,166,VALID,2.27891,
2011-09-03, 00:59:04,VALID,1000.26,VALID,0,VALID,79.7219,VALID,0,VALID,25.2431,VALID,171,VALID,2.50703,
2011-09-03, 01:00:04,VALID,1000.26,VALID,0,VALID,79.8821,VALID,0,VALID,25.204,VALID,161,VALID,1.95742,
2011-09-03, 01:01:04,VALID,1000.25,VALID,0,VALID,80.1949,VALID,0,VALID,25.1455,VALID,163,VALID,1.84336,
2011-09-03, 01:02:04,VALID,1000.28,VALID,0,VALID,80.3399,VALID,0,VALID,25.085,VALID,166,VALID,1.93633,
2011-09-03, 01:03:04,VALID,1000.22,VALID,0,VALID,80.5688,VALID,0,VALID,25.046,VALID,165,VALID,1.72266,
2011-09-03, 01:04:04,VALID,1000.23,VALID,0,VALID,80.6069,VALID,0,VALID,25.0265,VALID,162,VALID,1.69805,
2011-09-03, 01:05:04,VALID,1000.23,VALID,0,VALID,80.7595,VALID,0.112286,VALID,25.0069,VALID,167,VALID,1.58633,
2011-09-03, 01:06:04,VALID,1000.22,VALID,0,VALID,80.8206,VALID,0,VALID,24.9874,VALID,164,VALID,1.58086,
2011-09-03, 01:07:04,VALID,1000.19,VALID,0,VALID,80.7214,VALID,0.112286,VALID,24.9679,VALID,171,VALID,1.93633,
2011-09-03, 01:08:04,VALID,1000.2,VALID,0,VALID,80.6603,VALID,0,VALID,24.9874,VALID,163,VALID,1.82344,
2011-09-03, 01:09:04,VALID,1000.2,VALID,0,VALID,80.5459,VALID,0,VALID,25.0284,VALID,163,VALID,1.62188,
2011-09-03, 01:10:04,VALID,1000.18,VALID,0,VALID,80.4162,VALID,0.112286,VALID,25.0069,VALID,171,VALID,1.85234,
2011-09-03, 01:11:04,VALID,1000.18,VALID,0,VALID,80.2407,VALID,0,VALID,25.0265,VALID,175,VALID,1.8918,
2011-09-03, 01:12:04,VALID,1000.17,VALID,0,VALID,80.0042,VALID,0,VALID,25.0674,VALID,175,VALID,2.39531,
2011-09-03, 01:13:04,VALID,1000.14,VALID,0,VALID,79.8745,VALID,0,VALID,25.085,VALID,174,VALID,1.88398,
2011-09-03, 01:14:04,VALID,1000.15,VALID,0,VALID,79.4625,VALID,0,VALID,25.1436,VALID,181,VALID,2.34844,
2011-09-03, 01:15:04,VALID,1000.15,VALID,0,VALID,79.0658,VALID,0,VALID,25.1631,VALID,175,VALID,2.06914,
2011-09-03, 01:16:04,VALID,1000.15,VALID,0,VALID,78.8521,VALID,0,VALID,25.2021,VALID,191,VALID,2.10039,
2011-09-03, 01:17:04,VALID,1000.11,VALID,0,VALID,78.7682,VALID,0,VALID,25.2236,VALID,191,VALID,1.34063,
2011-09-03, 01:18:04,VALID,1000.14,VALID,0,VALID,78.814,VALID,0,VALID,25.2021,VALID,170,VALID,2.17305,
2011-09-03, 01:19:04,VALID,1000.1,VALID,0,VALID,78.7224,VALID,0,VALID,25.2431,VALID,177,VALID,1.94531,
2011-09-03, 01:20:04,VALID,1000.07,VALID,0,VALID,78.6309,VALID,0,VALID,25.2236,VALID,174,VALID,2.19844,
2011-09-03, 01:21:04,VALID,1000.08,VALID,0,VALID,78.7835,VALID,0,VALID,25.204,VALID,170,VALID,1.97852,
2011-09-03, 01:22:04,VALID,1000.09,VALID,0,VALID,78.7758,VALID,0.112286,VALID,25.1631,VALID,175,VALID,2.18828,
2011-09-03, 01:23:04,VALID,1000.06,VALID,0,VALID,79.0352,VALID,0,VALID,25.126,VALID,167,VALID,1.80938,
2011-09-03, 01:24:04,VALID,1000.05,VALID,0,VALID,78.9208,VALID,0,VALID,25.0869,VALID,174,VALID,2.22266,
2011-09-03, 01:25:04,VALID,1000.04,VALID,0,VALID,78.9437,VALID,0,VALID,25.0888,VALID,172,VALID,2.07227,
2011-09-03, 01:26:04,VALID,1000.04,VALID,0,VALID,79.0047,VALID,0,VALID,25.0674,VALID,177,VALID,2.09687,
2011-09-03, 01:27:04,VALID,1000.02,VALID,0,VALID,78.9742,VALID,0,VALID,25.0479,VALID,171,VALID,1.83398,
2011-09-03, 01:28:04,VALID,1000.05,VALID,0,VALID,79.1421,VALID,0,VALID,25.0284,VALID,163,VALID,1.82031,
2011-09-03, 01:29:04,VALID,1000.05,VALID,0,VALID,78.9513,VALID,0,VALID,25.0303,VALID,176,VALID,2.03789,
2011-09-03, 01:30:04,VALID,1000.04,VALID,0,VALID,78.7835,VALID,0,VALID,25.0479,VALID,191,VALID,1.84063,
2011-09-03, 01:31:04,VALID,1000.03,VALID,0,VALID,78.6766,VALID,0,VALID,25.0674,VALID,187,VALID,2.21172,
2011-09-03, 01:32:04,VALID,1000.02,VALID,0,VALID,78.5088,VALID,0,VALID,25.1083,VALID,176,VALID,2.16406,
2011-09-03, 01:33:04,VALID,999.995,VALID,0,VALID,78.5393,VALID,0,VALID,25.1064,VALID,175,VALID,2.10156,
2011-09-03, 01:34:04,VALID,999.98,VALID,0,VALID,78.3791,VALID,0,VALID,25.1279,VALID,173,VALID,2.28789,
2011-09-03, 01:35:04,VALID,999.944,VALID,0,VALID,78.3943,VALID,0,VALID,25.1064,VALID,174,VALID,2.19219,
2011-09-03, 01:36:04,VALID,999.944,VALID,0,VALID,78.4554,VALID,0,VALID,25.1279,VALID,177,VALID,2.09531,
2011-09-03, 01:37:04,VALID,999.92,VALID,0,VALID,78.4706,VALID,0,VALID,25.1064,VALID,168,VALID,1.94102,
2011-09-03, 01:38:04,VALID,999.89,VALID,0,VALID,78.6766,VALID,0,VALID,25.1083,VALID,168,VALID,1.79297,
2011-09-03, 01:39:04,VALID,999.899,VALID,0,VALID,78.6995,VALID,0,VALID,25.0284,VALID,178,VALID,1.90781,
2011-09-03, 01:40:04,VALID,999.858,VALID,0,VALID,78.463,VALID,0,VALID,25.0284,VALID,178,VALID,2.15859,
2011-09-03, 01:41:04,VALID,999.848,VALID,0,VALID,78.3943,VALID,0,VALID,25.0674,VALID,172,VALID,2.06445,
2011-09-03, 01:42:04,VALID,999.846,VALID,0,VALID,78.1349,VALID,0,VALID,25.0869,VALID,176,VALID,2.06367,
2011-09-03, 01:43:04,VALID,999.83,VALID,0,VALID,78.2418,VALID,0,VALID,25.1064,VALID,167,VALID,1.96523,
2011-09-03, 01:44:04,VALID,999.809,VALID,0,VALID,78.3104,VALID,0,VALID,25.0869,VALID,166,VALID,2.02773,
2011-09-03, 01:45:04,VALID,999.786,VALID,0,VALID,78.3257,VALID,0,VALID,25.0479,VALID,173,VALID,2.03125,
2011-09-03, 01:46:04,VALID,999.78,VALID,0,VALID,78.6003,VALID,0,VALID,25.0303,VALID,167,VALID,2.34336,
2011-09-03, 01:47:04,VALID,999.762,VALID,0,VALID,78.6232,VALID,0,VALID,24.9893,VALID,165,VALID,2.03203,
2011-09-03, 01:48:04,VALID,999.784,VALID,0,VALID,78.9971,VALID,0,VALID,24.9503,VALID,163,VALID,1.96992,
2011-09-03, 01:49:04,VALID,999.784,VALID,0,VALID,79.1878,VALID,0,VALID,24.9112,VALID,168,VALID,1.8707,
2011-09-03, 01:50:04,VALID,999.771,VALID,0,VALID,79.4778,VALID,0,VALID,24.8936,VALID,169,VALID,1.96133,
2011-09-03, 01:51:04,VALID,999.74,VALID,0,VALID,79.6914,VALID,0,VALID,24.8332,VALID,158,VALID,1.98086,
2011-09-03, 01:52:04,VALID,999.755,VALID,0,VALID,79.8592,VALID,0,VALID,24.8136,VALID,159,VALID,1.8625,
2011-09-03, 01:53:04,VALID,999.739,VALID,0,VALID,79.9737,VALID,0,VALID,24.8136,VALID,153,VALID,2.42656,
2011-09-03, 01:54:04,VALID,999.715,VALID,0,VALID,80.0042,VALID,0,VALID,24.8332,VALID,149,VALID,1.70391,
2011-09-03, 01:55:04,VALID,999.72,VALID,0,VALID,80.1415,VALID,0,VALID,24.8332,VALID,153,VALID,1.58164,
2011-09-03, 01:56:04,VALID,999.729,VALID,0,VALID,80.1873,VALID,0,VALID,24.8546,VALID,152,VALID,1.49766,
2011-09-03, 01:57:04,VALID,999.736,VALID,0,VALID,80.2636,VALID,0,VALID,24.8136,VALID,155,VALID,1.2875,
2011-09-03, 01:58:04,VALID,999.705,VALID,0,VALID,80.4696,VALID,0,VALID,24.7941,VALID,158,VALID,1.52539,
2011-09-03, 01:59:04,VALID,999.701,VALID,0,VALID,80.7061,VALID,0,VALID,24.7551,VALID,164,VALID,1.38906,
2011-09-03, 02:00:04,VALID,999.713,VALID,0,VALID,80.668,VALID,0,VALID,24.7551,VALID,172,VALID,1.52891,
2011-09-03, 02:01:04,VALID,999.739,VALID,0,VALID,80.5459,VALID,0,VALID,24.7746,VALID,162,VALID,1.60391,
2011-09-03, 02:02:04,VALID,999.728,VALID,0,VALID,80.3018,VALID,0,VALID,24.8136,VALID,156,VALID,1.92617,
2011-09-03, 02:03:04,VALID,999.734,VALID,0,VALID,80.3552,VALID,0,VALID,24.8136,VALID,162,VALID,1.44766,
2011-09-03, 02:04:04,VALID,999.724,VALID,0,VALID,80.3933,VALID,0,VALID,24.835,VALID,164,VALID,1.62266,
2011-09-03, 02:05:04,VALID,999.76,VALID,0,VALID,80.2255,VALID,0,VALID,24.8332,VALID,174,VALID,1.725,
2011-09-03, 02:06:04,VALID,999.746,VALID,0,VALID,80.0881,VALID,0,VALID,24.8722,VALID,175,VALID,1.71758,
2011-09-03, 02:07:04,VALID,999.744,VALID,0,VALID,79.8974,VALID,0,VALID,24.8917,VALID,168,VALID,1.63672,
2011-09-03, 02:08:04,VALID,999.715,VALID,0,VALID,79.6609,VALID,0,VALID,24.9112,VALID,174,VALID,1.63437,
2011-09-03, 02:09:04,VALID,999.697,VALID,0,VALID,79.2412,VALID,0,VALID,24.9698,VALID,180,VALID,2.00312,
2011-09-03, 02:10:04,VALID,999.676,VALID,0,VALID,78.9818,VALID,0,VALID,24.9893,VALID,183,VALID,1.91016,
2011-09-03, 02:11:04,VALID,999.66,VALID,0,VALID,78.9132,VALID,0,VALID,25.0284,VALID,178,VALID,2.22734,
2011-09-03, 02:12:04,VALID,999.661,VALID,0,VALID,78.7529,VALID,0,VALID,25.0869,VALID,185,VALID,1.86563,
2011-09-03, 02:13:04,VALID,999.614,VALID,0,VALID,78.5317,VALID,0,VALID,25.0869,VALID,179,VALID,2.00664,
2011-09-03, 02:14:04,VALID,999.631,VALID,0,VALID,78.524,VALID,0,VALID,25.1083,VALID,178,VALID,1.59336,
2011-09-03, 02:15:04,VALID,999.62,VALID,0,VALID,78.4859,VALID,0,VALID,25.1064,VALID,171,VALID,2.01055,
2011-09-03, 02:16:04,VALID,999.595,VALID,0,VALID,78.4706,VALID,0,VALID,25.0674,VALID,177,VALID,2.10625,
2011-09-03, 02:17:04,VALID,999.612,VALID,0,VALID,78.3486,VALID,0,VALID,25.0674,VALID,177,VALID,1.94297,
2011-09-03, 02:18:04,VALID,999.608,VALID,0,VALID,78.2112,VALID,0,VALID,25.0674,VALID,181,VALID,2.11875,
2011-09-03, 02:19:04,VALID,999.594,VALID,0,VALID,78.1655,VALID,0,VALID,25.0888,VALID,183,VALID,2.22344,
2011-09-03, 02:20:04,VALID,999.635,VALID,0,VALID,78.1502,VALID,0,VALID,25.1064,VALID,187,VALID,1.70898,
2011-09-03, 02:21:04,VALID,999.629,VALID,0,VALID,78.1197,VALID,0,VALID,25.0888,VALID,179,VALID,1.91758,
2011-09-03, 02:22:04,VALID,999.586,VALID,0,VALID,78.1044,VALID,0,VALID,25.1083,VALID,185,VALID,1.59531,
2011-09-03, 02:23:04,VALID,999.638,VALID,0,VALID,77.9595,VALID,0,VALID,25.0869,VALID,203,VALID,1.42852,
2011-09-03, 02:24:04,VALID,999.652,VALID,0,VALID,78.0968,VALID,0.112286,VALID,25.0655,VALID,188,VALID,1.39766,
2011-09-03, 02:25:04,VALID,999.643,VALID,0,VALID,78.1197,VALID,0,VALID,25.0479,VALID,194,VALID,1.5125,
2011-09-03, 02:26:04,VALID,999.686,VALID,0,VALID,78.2723,VALID,0.112286,VALID,25.0069,VALID,203,VALID,0.902734,
2011-09-03, 02:27:04,VALID,999.69,VALID,0,VALID,78.1883,VALID,0,VALID,24.9893,VALID,195,VALID,0.960156,
2011-09-03, 02:28:04,VALID,999.703,VALID,0,VALID,78.0129,VALID,0,VALID,24.9698,VALID,193,VALID,0.840625,
2011-09-03, 02:29:04,VALID,999.702,VALID,0,VALID,77.9289,VALID,0,VALID,24.9289,VALID,200,VALID,0.858984,
2011-09-03, 02:30:04,VALID,999.72,VALID,0,VALID,78.0663,VALID,0,VALID,24.8703,VALID,200,VALID,0.94375,
2011-09-03, 02:31:04,VALID,999.689,VALID,0,VALID,78.1655,VALID,0,VALID,24.8703,VALID,194,VALID,0.784375,
2011-09-03, 02:32:04,VALID,999.705,VALID,0,VALID,78.1578,VALID,0,VALID,24.8508,VALID,196,VALID,0.750391,
2011-09-03, 02:33:04,VALID,999.689,VALID,0,VALID,78.4172,VALID,0,VALID,24.8332,VALID,197,VALID,0.507031,
2011-09-03, 02:34:04,VALID,999.673,VALID,0,VALID,78.8674,VALID,0,VALID,24.7746,VALID,198,VALID,0.103125,
2011-09-03, 02:35:04,VALID,999.671,VALID,0,VALID,79.76,VALID,0,VALID,24.677,VALID,204,VALID,0.307031,
2011-09-03, 02:36:04,VALID,999.64,VALID,0,VALID,80.8969,VALID,0,VALID,24.5013,VALID,316,VALID,0.465625,
2011-09-03, 02:37:04,VALID,999.647,VALID,0,VALID,82.3923,VALID,0,VALID,24.3043,VALID,316,VALID,0.556641,
2011-09-03, 02:38:04,VALID,999.648,VALID,0,VALID,83.3307,VALID,0,VALID,24.15,VALID,316,VALID,0.683984,
2011-09-03, 02:39:04,VALID,999.613,VALID,0,VALID,83.9106,VALID,0,VALID,23.9549,VALID,316,VALID,0.449219,
2011-09-03, 02:40:04,VALID,999.608,VALID,0,VALID,84.7651,VALID,0,VALID,23.7597,VALID,318,VALID,0.811328,
2011-09-03, 02:41:04,VALID,999.616,VALID,0,VALID,85.7798,VALID,0,VALID,23.5628,VALID,318,VALID,0.797266,
2011-09-03, 02:42:04,VALID,999.611,VALID,0,VALID,86.7259,VALID,0,VALID,23.4458,VALID,344,VALID,0.844141,
2011-09-03, 02:43:04,VALID,999.61,VALID,0,VALID,87.0387,VALID,0.112286,VALID,23.3872,VALID,344,VALID,0.513281,
2011-09-03, 02:44:04,VALID,999.588,VALID,0,VALID,87.1303,VALID,0.112286,VALID,23.3677,VALID,344,VALID,0.499609,
2011-09-03, 02:45:04,VALID,999.589,VALID,0,VALID,86.97,VALID,0,VALID,23.3287,VALID,344,VALID,0.417188,
2011-09-03, 02:46:04,VALID,999.563,VALID,0,VALID,87.0387,VALID,0,VALID,23.2702,VALID,344,VALID,0.220313,
2011-09-03, 02:47:04,VALID,999.566,VALID,0,VALID,87.3439,VALID,0,VALID,23.2524,VALID,344,VALID,0,
2011-09-03, 02:48:04,VALID,999.517,VALID,0,VALID,87.588,VALID,0,VALID,23.2329,VALID,344,VALID,0.182812,
2011-09-03, 02:49:04,VALID,999.514,VALID,0,VALID,87.7254,VALID,0,VALID,23.1726,VALID,344,VALID,0.00234375,
2011-09-03, 02:50:04,VALID,999.539,VALID,0,VALID,87.7406,VALID,0,VALID,23.1336,VALID,344,VALID,0.364844,
2011-09-03, 02:51:04,VALID,999.546,VALID,0,VALID,87.672,VALID,0,VALID,23.0751,VALID,344,VALID,0.445703,
2011-09-03, 02:52:04,VALID,999.551,VALID,0,VALID,88.29,VALID,0.112286,VALID,23.0361,VALID,344,VALID,0.376953,
2011-09-03, 02:53:04,VALID,999.58,VALID,0,VALID,88.5951,VALID,0,VALID,23.0378,VALID,344,VALID,0.263672,
2011-09-03, 02:54:04,VALID,999.563,VALID,0,VALID,88.9614,VALID,0,VALID,23.0201,VALID,344,VALID,0,
2011-09-03, 02:55:04,VALID,999.55,VALID,0,VALID,89.1826,VALID,0,VALID,23.0396,VALID,27,VALID,0.846094,
2011-09-03, 02:56:04,VALID,999.535,VALID,0,VALID,89.0377,VALID,0,VALID,22.9793,VALID,69,VALID,1.0457,
2011-09-03, 02:57:04,VALID,999.539,VALID,0,VALID,89.0377,VALID,0,VALID,22.942,VALID,69,VALID,0.617188,
2011-09-03, 02:58:04,VALID,999.573,VALID,0,VALID,89.3123,VALID,0,VALID,22.903,VALID,69,VALID,0.366016,
2011-09-03, 02:59:04,VALID,999.569,VALID,0,VALID,89.4802,VALID,0,VALID,22.8623,VALID,69,VALID,0.691406,
2011-09-03, 03:00:04,VALID,999.583,VALID,0,VALID,89.6633,VALID,0,VALID,22.864,VALID,69,VALID,0.833203,
2011-09-03, 03:01:04,VALID,999.605,VALID,0,VALID,89.938,VALID,0,VALID,22.8232,VALID,69,VALID,0.83125,
2011-09-03, 03:02:04,VALID,999.599,VALID,0,VALID,89.9456,VALID,0,VALID,22.8232,VALID,69,VALID,0.512891,
2011-09-03, 03:03:04,VALID,999.647,VALID,0,VALID,89.854,VALID,0,VALID,22.786,VALID,69,VALID,0.585547,
2011-09-03, 03:04:04,VALID,999.66,VALID,0,VALID,89.999,VALID,0,VALID,22.7469,VALID,69,VALID,0.498047,
2011-09-03, 03:05:04,VALID,999.68,VALID,0,VALID,90.1592,VALID,0,VALID,22.6867,VALID,69,VALID,0.646875,
2011-09-03, 03:06:04,VALID,999.676,VALID,0,VALID,90.2203,VALID,0,VALID,22.6494,VALID,69,VALID,0.291406,
2011-09-03, 03:07:04,VALID,999.664,VALID,0,VALID,90.2737,VALID,0,VALID,22.6299,VALID,69,VALID,0.0328125,
2011-09-03, 03:08:04,VALID,999.686,VALID,0,VALID,90.3042,VALID,0,VALID,22.5501,VALID,69,VALID,0,
2011-09-03, 03:09:04,VALID,999.691,VALID,0,VALID,90.3957,VALID,0,VALID,22.5306,VALID,69,VALID,0.289063,
2011-09-03, 03:10:04,VALID,999.693,VALID,0,VALID,90.617,VALID,0,VALID,22.5323,VALID,69,VALID,0.441406,
2011-09-03, 03:11:04,VALID,999.674,VALID,0,VALID,90.8383,VALID,0,VALID,22.5323,VALID,69,VALID,0.225,
2011-09-03, 03:12:04,VALID,999.657,VALID,0,VALID,90.9222,VALID,0,VALID,22.5323,VALID,69,VALID,0.198828,
2011-09-03, 03:13:04,VALID,999.662,VALID,0,VALID,90.9909,VALID,0,VALID,22.5128,VALID,69,VALID,0.264453,
2011-09-03, 03:14:04,VALID,999.651,VALID,0,VALID,91.0748,VALID,0,VALID,22.4933,VALID,69,VALID,0.239844,
2011-09-03, 03:15:04,VALID,999.655,VALID,0,VALID,91.1206,VALID,0,VALID,22.4933,VALID,69,VALID,0.0996094,
2011-09-03, 03:16:04,VALID,999.653,VALID,0,VALID,91.1511,VALID,0,VALID,22.4543,VALID,69,VALID,0,
2011-09-03, 03:17:04,VALID,999.658,VALID,0,VALID,91.2426,VALID,0,VALID,22.4543,VALID,69,VALID,0,
2011-09-03, 03:18:04,VALID,999.645,VALID,0,VALID,91.3418,VALID,0,VALID,22.4526,VALID,69,VALID,0.136328,
2011-09-03, 03:19:04,VALID,999.643,VALID,0,VALID,91.441,VALID,0,VALID,22.4933,VALID,69,VALID,0.241016,
2011-09-03, 03:20:04,VALID,999.63,VALID,0,VALID,91.5326,VALID,0,VALID,22.4916,VALID,69,VALID,0.281641,
2011-09-03, 03:21:04,VALID,999.648,VALID,0,VALID,91.5707,VALID,0,VALID,22.5323,VALID,69,VALID,0.139453,
2011-09-03, 03:22:04,VALID,999.62,VALID,0,VALID,91.6241,VALID,0,VALID,22.5714,VALID,69,VALID,0.0753906,
2011-09-03, 03:23:04,VALID,999.643,VALID,0,VALID,91.6928,VALID,0,VALID,22.6104,VALID,69,VALID,0.186328,
2011-09-03, 03:24:04,VALID,999.625,VALID,0,VALID,91.6546,VALID,0,VALID,22.6282,VALID,69,VALID,0.307031,
2011-09-03, 03:25:04,VALID,999.654,VALID,0,VALID,91.6012,VALID,0,VALID,22.6087,VALID,69,VALID,0.0105469,
2011-09-03, 03:26:04,VALID,999.669,VALID,0,VALID,91.5402,VALID,0,VALID,22.6299,VALID,69,VALID,0.00742187,
2011-09-03, 03:27:04,VALID,999.652,VALID,0,VALID,91.2655,VALID,0,VALID,22.5714,VALID,69,VALID,0.265234,
2011-09-03, 03:28:04,VALID,999.661,VALID,0,VALID,91.1434,VALID,0,VALID,22.5323,VALID,94,VALID,0.611719,
2011-09-03, 03:29:04,VALID,999.656,VALID,0,VALID,91.0443,VALID,0,VALID,22.4738,VALID,98,VALID,0.461719,
2011-09-03, 03:30:04,VALID,999.668,VALID,0,VALID,90.9298,VALID,0,VALID,22.4153,VALID,56,VALID,0.460156,
2011-09-03, 03:31:04,VALID,999.704,VALID,0,VALID,90.884,VALID,0,VALID,22.3373,VALID,56,VALID,0.258203,
2011-09-03, 03:32:04,VALID,999.676,VALID,0,VALID,91.0595,VALID,0,VALID,22.3568,VALID,52,VALID,0.715234,
2011-09-03, 03:33:04,VALID,999.696,VALID,0,VALID,91.2274,VALID,0,VALID,22.3763,VALID,90,VALID,0.341406,
2011-09-03, 03:34:04,VALID,999.677,VALID,0,VALID,91.2274,VALID,0,VALID,22.4348,VALID,160,VALID,0.913672,
2011-09-03, 03:35:04,VALID,999.682,VALID,0,VALID,91.1358,VALID,0,VALID,22.5519,VALID,160,VALID,0.790234,
2011-09-03, 03:36:04,VALID,999.704,VALID,0,VALID,90.6857,VALID,0,VALID,22.6299,VALID,153,VALID,0.803516,
2011-09-03, 03:37:04,VALID,999.708,VALID,0,VALID,89.9532,VALID,0,VALID,22.6884,VALID,150,VALID,0.214844,
2011-09-03, 03:38:04,VALID,999.705,VALID,0,VALID,89.3276,VALID,0,VALID,22.6884,VALID,150,VALID,1.02383,
2011-09-03, 03:39:04,VALID,999.697,VALID,0,VALID,89.0987,VALID,0,VALID,22.8037,VALID,161,VALID,1.46719,
2011-09-03, 03:40:04,VALID,999.729,VALID,0,VALID,88.3815,VALID,0,VALID,23.0183,VALID,171,VALID,1.3043,
2011-09-03, 03:41:04,VALID,999.718,VALID,0,VALID,87.0006,VALID,0,VALID,23.3287,VALID,183,VALID,1.76172,
2011-09-03, 03:42:04,VALID,999.709,VALID,0,VALID,84.9406,VALID,0,VALID,23.6817,VALID,175,VALID,1.53633,
2011-09-03, 03:43:04,VALID,999.706,VALID,0,VALID,83.0942,VALID,0,VALID,23.9372,VALID,177,VALID,1.76133,
2011-09-03, 03:44:04,VALID,999.713,VALID,0,VALID,81.5759,VALID,0,VALID,24.15,VALID,173,VALID,1.68633,
2011-09-03, 03:45:04,VALID,999.697,VALID,0,VALID,80.8282,VALID,0,VALID,24.3666,VALID,166,VALID,2.06562,